Weather History for Tirstrup, Denmark

Change the Weather History Date:

Friday, March 29, 2013

  Actual Average Record
Temperature  
Mean Temperature 32 °F -  
Max Temperature 34 °F 50 °F 55 °F (2007)
Min Temperature 30 °F 34 °F 26 °F (2002)
Degree Days  
Heating Degree Days 33    
Moisture  
Dew Point 27 °F    
Average Humidity 81    
Maximum Humidity 93    
Minimum Humidity 57    
Precipitation  
Precipitation 0.01 in - - ()
Sea Level Pressure  
Sea Level Pressure 29.90 in    
Wind  
Wind Speed 10 mph ()    
Max Wind Speed 16 mph    
Max Gust Speed -    
Visibility 5.1 miles    
Events Rain , Snow    
Averages and records for this station are not official NWS values.
T = Trace of Precipitation, MM = Missing Value Source: Averaged Metar Reports

Daily Weather History Graph

Daily Weather History Graph

Search for Another Location

Airport:

Trip Planner

Search our weather history database for the weather conditions in past years. The results will help you decide how hot, cold, wet, or windy it might be!

Date:

Astronomy

Mar. 29, 2013 Rise Set
Actual Time 5:55 AM CET 6:50 PM CET
Civil Twilight 5:17 AM CET 7:28 PM CET
Nautical Twilight 4:31 AM CET 8:14 PM CET
Astronomical Twilight 3:40 AM CET 9:05 PM CET
Moon 10:08 PM CET (3/29) 6:23 AM CET (3/29)
Length of Visible Light 14h 10m
Length of Day
12h 54m
Waning Gibbous, 95% of the Moon is Illuminated
Mar 29
Waning Gibbous
Apr 3
Last Quarter
Apr 10
New
Apr 18
First Quarter
Apr 25
Full

Hourly Weather History & Observations

Time (CET) Temp. Windchill Dew Point Humidity Pressure Visibility Wind Dir Wind Speed Gust Speed Precip Events Conditions
12:20 AM 32.0 °F 23.6 °F 21.2 °F 64% 30.01 in 6.2 mi East 10.4 mph - N/A   Overcast
12:50 AM 32.0 °F 23.0 °F 23.0 °F 69% 30.01 in 6.2 mi East 11.5 mph - N/A   Overcast
1:00 AM 32 °F - 22 °F 57% 30.01 in 28 mi East 10.4 mph - -  
1:20 AM 32.0 °F 23.0 °F 23.0 °F 69% 30.01 in 6.2 mi East 11.5 mph - N/A   Overcast
1:50 AM 32.0 °F 23.0 °F 23.0 °F 69% 29.98 in 6.2 mi East 11.5 mph - N/A   Mostly Cloudy
2:20 AM 32.0 °F 23.6 °F 23.0 °F 69% 29.98 in 6.2 mi East 10.4 mph - N/A   Overcast
2:50 AM 32.0 °F 23.6 °F 24.8 °F 75% 29.98 in 6.2 mi East 10.4 mph - N/A   Overcast
3:20 AM 32.0 °F 23.6 °F 24.8 °F 75% 29.95 in 6.2 mi East 10.4 mph - N/A   Overcast
3:50 AM 32.0 °F 23.0 °F 24.8 °F 75% 29.95 in 6.2 mi East 11.5 mph - N/A Snow Light Snow
4:00 AM 32 °F - 25 °F 66% 29.96 in 5 mi East 11.5 mph - - Snow Light Snow
4:20 AM 32.0 °F 23.0 °F 24.8 °F 75% 29.95 in 3.1 mi East 11.5 mph - N/A Snow Light Snow
4:50 AM 32.0 °F 24.2 °F 26.6 °F 80% 29.95 in - East 9.2 mph - N/A Snow Light Snow
5:20 AM 30.2 °F 22.6 °F 26.6 °F 86% 29.95 in - East 8.1 mph - N/A Snow Light Snow
5:50 AM 30.2 °F 22.6 °F 26.6 °F 86% 29.95 in 3.1 mi ENE 8.1 mph - N/A Snow Light Snow
6:20 AM 30.2 °F 21.3 °F 26.6 °F 86% 29.95 in 3.7 mi ENE 10.4 mph - N/A Snow Light Snow
6:50 AM 30.2 °F 21.3 °F 26.6 °F 86% 29.95 in 4.3 mi ENE 10.4 mph - N/A Snow Light Snow
7:00 AM 31 °F - 28 °F 81% 29.95 in 3 mi ENE 11.5 mph - - Snow Light Snow
7:20 AM 30.2 °F 20.8 °F 28.4 °F 93% 29.92 in 3.1 mi East 11.5 mph - N/A Snow Light Snow
7:50 AM 32.0 °F 23.6 °F 28.4 °F 87% 29.92 in - ENE 10.4 mph - N/A Snow Light Snow
8:20 AM 32.0 °F 23.0 °F 28.4 °F 87% 29.92 in 2.8 mi ENE 11.5 mph - N/A Snow Light Snow
8:50 AM 32.0 °F 22.5 °F 28.4 °F 87% 29.92 in 3.7 mi ENE 12.7 mph - N/A Snow Light Snow
9:20 AM 32.0 °F 22.5 °F 28.4 °F 87% 29.92 in 4.3 mi ENE 12.7 mph - N/A Snow Light Snow
9:50 AM 32.0 °F 22.1 °F 28.4 °F 87% 29.92 in 6.2 mi ENE 13.8 mph - N/A Snow Light Snow Grains
10:00 AM 32 °F - 28 °F 79% 29.93 in 5 mi ENE 13.8 mph - - Snow Snow Grains
10:20 AM 32.0 °F 22.5 °F 28.4 °F 87% 29.92 in 6.2 mi ENE 12.7 mph - N/A Rain Light Rain
10:50 AM 33.8 °F 24.3 °F 28.4 °F 81% 29.89 in 6.2 mi ENE 13.8 mph - N/A Rain Light Rain
11:20 AM 32.0 °F 22.1 °F 26.6 °F 80% 29.89 in 6.2 mi ENE 13.8 mph - N/A   Mostly Cloudy
11:50 AM 33.8 °F 23.5 °F 26.6 °F 75% 29.89 in 6.2 mi ENE 16.1 mph - N/A   Mostly Cloudy
12:20 PM 33.8 °F 24.8 °F 26.6 °F 75% 29.89 in 6.2 mi ENE 12.7 mph - N/A   Light Drizzle
12:50 PM 33.8 °F 23.9 °F 28.4 °F 81% 29.89 in 5.6 mi ENE 15.0 mph - N/A Snow Light Snow
1:00 PM 33 °F - 28 °F 73% 29.90 in 7 mi ENE 12.7 mph - - Snow Light Snow
1:20 PM 33.8 °F 23.9 °F 26.6 °F 75% 29.89 in 6.2 mi ENE 15.0 mph - N/A Snow Light Snow
1:50 PM 33.8 °F 24.8 °F 28.4 °F 81% 29.89 in 6.2 mi ENE 12.7 mph - N/A Rain Light Rain
2:20 PM 33.8 °F 24.3 °F 28.4 °F 81% 29.86 in 6.2 mi ENE 13.8 mph - N/A   Mostly Cloudy
2:50 PM 33.8 °F 24.3 °F 28.4 °F 81% 29.86 in 6.2 mi ENE 13.8 mph - N/A Rain Light Rain Showers
3:20 PM 33.8 °F 24.3 °F 28.4 °F 81% 29.86 in 5.0 mi NE 13.8 mph - N/A Snow Light Snow Showers
3:50 PM 33.8 °F 25.3 °F 28.4 °F 81% 29.86 in 3.7 mi ENE 11.5 mph - N/A Snow Light Snow
4:00 PM 33 °F - 29 °F 78% 29.87 in 4 mi NE 13.8 mph - - Snow Light Snow
4:20 PM 33.8 °F 24.8 °F 28.4 °F 81% 29.86 in 6.2 mi NE 12.7 mph - N/A Snow Light Snow
4:50 PM 33.8 °F 24.3 °F 28.4 °F 81% 29.86 in 6.2 mi NE 13.8 mph - N/A Snow Light Snow
5:20 PM 33.8 °F 25.8 °F 28.4 °F 81% 29.83 in 3.1 mi NE 10.4 mph - N/A Snow Light Snow
5:50 PM 32.0 °F 24.2 °F 28.4 °F 87% 29.83 in 5.6 mi NE 9.2 mph - N/A Snow Light Snow
6:20 PM 32.0 °F 24.8 °F 28.4 °F 87% 29.83 in 1.2 mi NNE 8.1 mph - N/A Snow Light Snow
6:50 PM 32.0 °F 25.6 °F 28.4 °F 87% 29.83 in - NNE 6.9 mph - N/A Snow Light Snow
7:00 PM 32 °F - 29 °F 83% 29.86 in 3 mi NNE 6.9 mph - - Snow Light Snow
7:20 PM 32.0 °F 25.6 °F 28.4 °F 87% 29.83 in - NNE 6.9 mph - N/A Snow Light Snow
7:50 PM 32.0 °F 26.4 °F 28.4 °F 87% 29.83 in 3.7 mi NNE 5.8 mph - N/A Snow Light Snow
8:20 PM 32.0 °F 27.5 °F 28.4 °F 87% 29.83 in - NNE 4.6 mph - N/A   Light Ice Pellets
8:50 PM 32.0 °F 25.6 °F 28.4 °F 87% 29.83 in - NNE 6.9 mph - N/A Rain , Snow Light Freezing Rain
9:20 PM 30.2 °F 26.7 °F 26.6 °F 86% 29.83 in - North 3.5 mph - N/A Rain , Snow Light Freezing Rain
9:50 PM 30.2 °F 22.6 °F 28.4 °F 93% 29.83 in 2.2 mi NNE 8.1 mph - N/A Rain , Snow Light Freezing Rain
10:00 PM 31 °F - 28 °F 85% 29.84 in 6 mi NE 9.2 mph - - Snow Light Snow
10:20 PM 32.0 °F 26.4 °F 28.4 °F 87% 29.83 in 6.2 mi NE 5.8 mph - N/A Snow Light Snow
10:50 PM 32.0 °F 26.4 °F 26.6 °F 80% 29.83 in 6.2 mi NE 5.8 mph - N/A Snow Light Snow Grains
11:20 PM 32.0 °F 24.8 °F 26.6 °F 80% 29.80 in 6.2 mi NE 8.1 mph - N/A   Mostly Cloudy
11:50 PM 30.2 °F 25.4 °F 24.8 °F 80% 29.80 in 6.2 mi NE 4.6 mph - N/A   Scattered Clouds